Weather in Volzhskiy

Russia / Volgograd Oblast     48°47′10″N   44°45′06″E
temp.,
°C
wind,
m/s
gust,
m/s
humid.,
%
clouds,
%
prec.,
mm/h
press.,
hPa
HPBL,
m
3 march, wed
wed300:00+1wsw81396100 0.7 1011852
03:00+1w61097100 1.6 1010537
06:000w4898100 1.3 1009420
09:00+1nw4796100 1.9 1010483
12:00+3nnw7973100 0.1 1011989
15:00+2nw71071100 0.1 10131123
18:00+1nw597199 0.1 1015965
21:00−1nw5107387 0.1 1019707
4 march, thu
thu400:00−2nw59760 0.0 1020596
03:00−2w48760 0.0 1021596
06:00−2wsw510720 0.0 1020466
09:00+1wsw813641 0.0 1019787
12:00+4wsw813540 0.0 10181154
15:00+5wsw812520 0.0 10161241
18:00+3sw614630 0.0 1015702
21:00+2sw616690 0.0 1015658
5 march, fri
fri500:00+1sw715750 0.0 1014609
03:00+2sw7168518 0.0 1014648
06:00+2wsw81686100 0.0 1013714
09:00+3wsw81580100 0.0 1013907
12:00+5wsw81376100 0.0 10131056
15:00+6wsw8137399 0.0 10131017
18:00+5sw51279100 0.0 1013550
21:00+4sw41281100 0.0 1013399
6 march, sat
sat600:00+4sw51479100 0.0 1012441
03:00+4sw71577100 0.0 1011623
06:00+3sw61579100 0.0 1010618
09:00+4wsw61282100 0.0 1010558
12:00+2nw5881100 0.1 1011470
15:00+3nnw5772100 0.1 1013873
18:00+1n5771100 0.1 1015889
21:00−1n5766100 0.1 1017686
7 march, sun
sun700:00−2n4658100 0.0 1017594
03:00−2nnw3559100 0.0 1018629
06:00−2nw125733 0.0 1019447
09:00−1wsw355232 0.0 1020850
12:00+1wsw683373 0.1 10191698
15:00+2w683944 0.1 10181628
18:000sw49490 0.0 1018958
21:000sw611490 0.0 1017852